Regional Weather Roundup
Issued by NWS

Home | Current Version | Previous Version | Graphics & Text | Print | Product List | Glossary On
Versions: 1 2 3 4 5 6 7 8 9 10 11 12 13 14 15 16 17 18 19 20 21 22 23 24
000
ASUS45 KCYS 220110
RWRWY

WYOMING REGIONAL WEATHER ROUNDUP
NATIONAL WEATHER SERVICE CHEYENNE WY
700 PM MDT TUE MAR 21 2017

NOTE:  "FAIR" INDICATES FEW OR NO CLOUDS BELOW 12,000 FEET
WITH NO SIGNIFICANT WEATHER AND/OR OBSTRUCTIONS TO VISIBILITY.

WYZ001-220200-
YELLOWSTONE NATIONAL PARK

CITY           SKY/WX    TMP DP  RH WIND       PRES   REMARKS
LK YELLOWSTONE   N/A     39  32  76 CALM      30.01F
W YELLOWSTONE  NOT AVBL

$$
WYZ002>013-054>058-071-098>099-220200-
NORTHERN WYOMING

CITY           SKY/WX    TMP DP  RH WIND       PRES   REMARKS
JACKSON        CLEAR     12  32 100 CALM      29.95F
CODY           MOCLDY    46  38  73 E5        29.97F
GREYBULL       FAIR      50  39  66 N7        29.94F
WORLAND        FAIR      51  42  71 N3        29.94F
SHERIDAN       CLOUDY    47  38  71 SE14G20   29.98F
BUFFALO        MOCLDY    43  35  73 SE17      30.02S
GILLETTE       MOCLDY    38  34  85 S23       30.06S WCI  27
HULETT         FAIR      32  30  93 MISG      30.11F
NEWCASTLE      FAIR      41  30  65 SE15G21   30.12R

$$
WYZ014>020-022>026-101>103-220200-
CENTRAL WYOMING

CITY           SKY/WX    TMP DP  RH WIND       PRES   REMARKS
BIG PINEY      FAIR      45  37  73 NE6       30.02S
PINEDALE       MOCLDY    46  32  57 CALM      30.03S
DUBOIS         MOCLDY    46  36  66 SE5       29.99S
LANDER         FAIR      50  38  63 SE5       29.94F
RIVERTON       FAIR      51  38  60 E7        29.96F
CASPER         MOCLDY    52  41  66 E5        29.98R
DOUGLAS        FAIR      48  41  76 SE16      30.05F

$$
WYZ021-027>030-104>119-220200-
SOUTHERN WYOMING

CITY           SKY/WX    TMP DP  RH WIND       PRES   REMARKS
EVANSTON       FAIR      54  28  36 S14       29.99S
KEMMERER         N/A     48  32  53 SW7       30.01F
FORT BRIDGER   FAIR      58  27  30 SW12      30.03S
ROCK SPRINGS   MOCLDY    56  32  40 S3        30.02F
DIXON            N/A     62  22  21 SW8       30.06R
RAWLINS        CLOUDY    60  24  25 SW18G25   30.02R
SARATOGA       CLOUDY    59  23  25 SW18G26   30.06R
LARAMIE        MOCLDY    47  34  60 SE26G33   30.09F
CHEYENNE       FAIR      50  35  56 SE15G24   30.13R
TORRINGTON     MOCLDY    54  34  46 SE16      30.09R
PINE BLUFFS    MOCLDY    52  34  50 SE18G28   30.12R

$$




USA.gov is the U.S. government's official web portal to all federal, state and local government web resources and services.